Year,Month,Day,Hour,Minute,Value (Times are PST for temperature in C)
2016,09,21,00,00,12.80
2016,09,21,00,01,12.80
2016,09,21,00,02,12.80
2016,09,21,00,03,12.80
2016,09,21,00,04,12.80
2016,09,21,00,05,12.80
2016,09,21,00,06,12.80
2016,09,21,00,07,12.80
2016,09,21,00,08,12.90
2016,09,21,00,09,12.90
2016,09,21,00,10,12.90
2016,09,21,00,11,12.90
2016,09,21,00,12,12.90
2016,09,21,00,13,12.90
2016,09,21,00,14,12.90
2016,09,21,00,15,12.80
2016,09,21,00,16,12.80
2016,09,21,00,17,12.80
2016,09,21,00,18,12.80
2016,09,21,00,19,12.90
2016,09,21,00,20,12.90
2016,09,21,00,21,12.80
2016,09,21,00,22,12.80
2016,09,21,00,23,12.80
2016,09,21,00,24,12.80
2016,09,21,00,25,12.80
2016,09,21,00,26,12.80
2016,09,21,00,27,12.80
2016,09,21,00,28,12.80
2016,09,21,00,29,12.80
2016,09,21,00,30,12.80
2016,09,21,00,31,12.80
2016,09,21,00,32,12.80
2016,09,21,00,33,12.80
2016,09,21,00,34,12.80
2016,09,21,00,35,12.80
2016,09,21,00,36,12.80
2016,09,21,00,37,12.80
2016,09,21,00,38,12.80
2016,09,21,00,39,12.70
2016,09,21,00,40,12.70
2016,09,21,00,41,12.70
2016,09,21,00,42,12.60
2016,09,21,00,43,12.60
2016,09,21,00,44,12.60
2016,09,21,00,45,12.60
2016,09,21,00,46,12.60
2016,09,21,00,47,12.60
2016,09,21,00,48,12.60
2016,09,21,00,49,12.60
2016,09,21,00,50,12.60
2016,09,21,00,51,12.60
2016,09,21,00,52,12.70
2016,09,21,00,53,12.70
2016,09,21,00,54,12.70
2016,09,21,00,55,12.70
2016,09,21,00,56,12.70
2016,09,21,00,57,12.70
2016,09,21,00,58,12.70
2016,09,21,00,59,12.70
2016,09,21,01,00,12.60
2016,09,21,01,01,12.60
2016,09,21,01,02,12.60
2016,09,21,01,03,12.60
2016,09,21,01,04,12.60
2016,09,21,01,05,12.60
2016,09,21,01,06,12.70
2016,09,21,01,07,12.70
2016,09,21,01,08,12.70
2016,09,21,01,09,12.70
2016,09,21,01,10,12.60
2016,09,21,01,11,12.60
2016,09,21,01,12,12.50
2016,09,21,01,13,12.50
2016,09,21,01,14,12.50
2016,09,21,01,15,12.50
2016,09,21,01,16,12.60
2016,09,21,01,17,12.60
2016,09,21,01,18,12.60
2016,09,21,01,19,12.60
2016,09,21,01,20,12.60
2016,09,21,01,21,12.70
2016,09,21,01,22,12.70
2016,09,21,01,23,12.60
2016,09,21,01,24,12.50
2016,09,21,01,25,12.40
2016,09,21,01,26,12.40
2016,09,21,01,27,12.30
2016,09,21,01,28,12.30
2016,09,21,01,29,12.30
2016,09,21,01,30,12.30
2016,09,21,01,31,12.20
2016,09,21,01,32,12.20
2016,09,21,01,33,12.20
2016,09,21,01,34,12.20
2016,09,21,01,35,12.30
2016,09,21,01,36,12.30
2016,09,21,01,37,12.30
2016,09,21,01,38,12.30
2016,09,21,01,39,12.30
2016,09,21,01,40,12.30
2016,09,21,01,41,12.30
2016,09,21,01,42,12.20
2016,09,21,01,43,12.20
2016,09,21,01,44,12.20
2016,09,21,01,45,12.10
2016,09,21,01,46,12.10
2016,09,21,01,47,12.10
2016,09,21,01,48,12.10
2016,09,21,01,49,12.10
2016,09,21,01,50,12.10
2016,09,21,01,51,12.00
2016,09,21,01,52,12.10
2016,09,21,01,53,12.10
2016,09,21,01,54,12.10
2016,09,21,01,55,12.20
2016,09,21,01,56,12.20
2016,09,21,01,57,12.30
2016,09,21,01,58,12.30
2016,09,21,01,59,12.40
2016,09,21,02,00,12.40
2016,09,21,02,01,12.40
2016,09,21,02,02,12.40
2016,09,21,02,03,12.40
2016,09,21,02,04,12.40
2016,09,21,02,05,12.30
2016,09,21,02,06,12.30
2016,09,21,02,07,12.30
2016,09,21,02,08,12.20
2016,09,21,02,09,12.20
2016,09,21,02,10,12.10
2016,09,21,02,11,11.90
2016,09,21,02,12,11.80
2016,09,21,02,13,11.80
2016,09,21,02,14,11.80
2016,09,21,02,15,11.80
2016,09,21,02,16,11.80
2016,09,21,02,17,11.80
2016,09,21,02,18,11.60
2016,09,21,02,19,11.60
2016,09,21,02,20,11.60
2016,09,21,02,21,11.50
2016,09,21,02,22,11.40
2016,09,21,02,23,11.40
2016,09,21,02,24,11.30
2016,09,21,02,25,11.20
2016,09,21,02,26,11.20
2016,09,21,02,27,11.10
2016,09,21,02,28,11.10
2016,09,21,02,29,11.00
2016,09,21,02,30,11.00
2016,09,21,02,31,10.90
2016,09,21,02,32,10.90
2016,09,21,02,33,10.90
2016,09,21,02,34,10.90
2016,09,21,02,35,10.80
2016,09,21,02,36,10.80
2016,09,21,02,37,10.80
2016,09,21,02,38,10.70
2016,09,21,02,39,10.70
2016,09,21,02,40,10.70
2016,09,21,02,41,10.60
2016,09,21,02,42,10.60
2016,09,21,02,43,10.60
2016,09,21,02,44,10.50
2016,09,21,02,45,10.50
2016,09,21,02,46,10.40
2016,09,21,02,47,10.40
2016,09,21,02,48,10.40
2016,09,21,02,49,10.40
2016,09,21,02,50,10.30
2016,09,21,02,51,10.30
2016,09,21,02,52,10.30
2016,09,21,02,53,10.30
2016,09,21,02,54,10.30
2016,09,21,02,55,10.20
2016,09,21,02,56,10.20
2016,09,21,02,57,10.20
2016,09,21,02,58,10.20
2016,09,21,02,59,10.10
2016,09,21,03,00,10.10
2016,09,21,03,01,10.10
2016,09,21,03,02,10.00
2016,09,21,03,03,10.00
2016,09,21,03,04,10.00
2016,09,21,03,05,9.90
2016,09,21,03,06,9.90
2016,09,21,03,07,9.80
2016,09,21,03,08,9.80
2016,09,21,03,09,9.80
2016,09,21,03,10,9.80
2016,09,21,03,11,9.80
2016,09,21,03,12,9.70
2016,09,21,03,13,9.70
2016,09,21,03,14,9.70
2016,09,21,03,15,9.70
2016,09,21,03,16,9.70
2016,09,21,03,17,9.70
2016,09,21,03,18,9.60
2016,09,21,03,19,9.60
2016,09,21,03,20,9.60
2016,09,21,03,21,9.60
2016,09,21,03,22,9.60
2016,09,21,03,23,9.60
2016,09,21,03,24,9.60
2016,09,21,03,25,9.50
2016,09,21,03,26,9.50
2016,09,21,03,27,9.40
2016,09,21,03,28,9.40
2016,09,21,03,29,9.40
2016,09,21,03,30,9.40
2016,09,21,03,31,9.40
2016,09,21,03,32,9.30
2016,09,21,03,33,9.30
2016,09,21,03,34,9.30
2016,09,21,03,35,9.30
2016,09,21,03,36,9.30
2016,09,21,03,37,9.30
2016,09,21,03,38,9.30
2016,09,21,03,39,9.30
2016,09,21,03,40,9.30
2016,09,21,03,41,9.30
2016,09,21,03,42,9.30
2016,09,21,03,43,9.30
2016,09,21,03,44,9.30
2016,09,21,03,45,9.30
2016,09,21,03,46,9.20
2016,09,21,03,47,9.20
2016,09,21,03,48,9.20
2016,09,21,03,49,9.20
2016,09,21,03,50,9.20
2016,09,21,03,51,9.10
2016,09,21,03,52,9.10
2016,09,21,03,53,9.10
2016,09,21,03,54,9.10
2016,09,21,03,55,9.10
2016,09,21,03,56,9.20
2016,09,21,03,57,9.20
2016,09,21,03,58,9.30
2016,09,21,03,59,9.30
2016,09,21,04,00,9.30
2016,09,21,04,01,9.30
2016,09,21,04,02,9.30
2016,09,21,04,03,9.30
2016,09,21,04,04,9.40
2016,09,21,04,05,9.40
2016,09,21,04,06,9.60
2016,09,21,04,07,9.70
2016,09,21,04,08,9.90
2016,09,21,04,09,10.00
2016,09,21,04,10,10.20
2016,09,21,04,11,10.30
2016,09,21,04,12,10.50
2016,09,21,04,13,10.70
2016,09,21,04,14,10.90
2016,09,21,04,15,11.10
2016,09,21,04,16,11.30
2016,09,21,04,17,11.40
2016,09,21,04,18,11.50
2016,09,21,04,19,11.60
2016,09,21,04,20,11.60
2016,09,21,04,21,11.70
2016,09,21,04,22,11.80
2016,09,21,04,23,11.80
2016,09,21,04,24,11.80
2016,09,21,04,25,11.80
2016,09,21,04,26,11.80
2016,09,21,04,27,11.80
2016,09,21,04,28,11.80
2016,09,21,04,29,11.80
2016,09,21,04,30,11.80
2016,09,21,04,31,11.80
2016,09,21,04,32,11.80
2016,09,21,04,33,11.80
2016,09,21,04,34,11.80
2016,09,21,04,35,11.80
2016,09,21,04,36,11.80
2016,09,21,04,37,11.90
2016,09,21,04,38,11.90
2016,09,21,04,39,11.90
2016,09,21,04,40,11.90
2016,09,21,04,41,11.90
2016,09,21,04,42,11.90
2016,09,21,04,43,11.80
2016,09,21,04,44,11.80
2016,09,21,04,45,11.80
2016,09,21,04,46,11.80
2016,09,21,04,47,11.70
2016,09,21,04,48,11.70
2016,09,21,04,49,11.70
2016,09,21,04,50,11.70
2016,09,21,04,51,11.70
2016,09,21,04,52,11.60
2016,09,21,04,53,11.50
2016,09,21,04,54,11.50
2016,09,21,04,55,11.40
2016,09,21,04,56,11.30
2016,09,21,04,57,11.20
2016,09,21,04,58,11.10
2016,09,21,04,59,11.00
2016,09,21,05,00,11.00
2016,09,21,05,01,10.90
2016,09,21,05,02,10.90
2016,09,21,05,03,10.80
2016,09,21,05,04,10.80
2016,09,21,05,05,10.80
2016,09,21,05,06,10.70
2016,09,21,05,07,10.70
2016,09,21,05,08,10.70
2016,09,21,05,09,10.60
2016,09,21,05,10,10.60
2016,09,21,05,11,10.60
2016,09,21,05,12,10.60
2016,09,21,05,13,10.60
2016,09,21,05,14,10.50
2016,09,21,05,15,10.50
2016,09,21,05,16,10.40
2016,09,21,05,17,10.40
2016,09,21,05,18,10.30
2016,09,21,05,19,10.30
2016,09,21,05,20,10.30
2016,09,21,05,21,10.20
2016,09,21,05,22,10.20
2016,09,21,05,23,10.10
2016,09,21,05,24,10.10
2016,09,21,05,25,10.10
2016,09,21,05,26,10.10
2016,09,21,05,27,10.00
2016,09,21,05,28,10.00
2016,09,21,05,29,9.90
2016,09,21,05,30,9.90
2016,09,21,05,31,9.90
2016,09,21,05,32,9.80
2016,09,21,05,33,9.80
2016,09,21,05,34,9.80
2016,09,21,05,35,9.70
2016,09,21,05,36,9.70
2016,09,21,05,37,9.70
2016,09,21,05,38,9.70
2016,09,21,05,39,9.70
2016,09,21,05,40,9.60
2016,09,21,05,41,9.60
2016,09,21,05,42,9.50
2016,09,21,05,43,9.50
2016,09,21,05,44,9.40
2016,09,21,05,45,9.40
2016,09,21,05,46,9.40
2016,09,21,05,47,9.30
2016,09,21,05,48,9.30
2016,09,21,05,49,9.30
2016,09,21,05,50,9.30
2016,09,21,05,51,9.20
2016,09,21,05,52,9.20
2016,09,21,05,53,9.20
2016,09,21,05,54,9.10
2016,09,21,05,55,9.10
2016,09,21,05,56,9.10
2016,09,21,05,57,9.00
2016,09,21,05,58,9.00
2016,09,21,05,59,9.00
2016,09,21,06,00,8.90
2016,09,21,06,01,8.90
2016,09,21,06,02,8.90
2016,09,21,06,03,8.90
2016,09,21,06,04,8.90
2016,09,21,06,05,8.80
2016,09,21,06,06,8.80
2016,09,21,06,07,8.80
2016,09,21,06,08,8.70
2016,09,21,06,09,8.70
2016,09,21,06,10,8.70
2016,09,21,06,11,8.60
2016,09,21,06,12,8.60
2016,09,21,06,13,8.50
2016,09,21,06,14,8.50
2016,09,21,06,15,8.50
2016,09,21,06,16,8.50
2016,09,21,06,17,8.50
2016,09,21,06,18,8.40
2016,09,21,06,19,8.40
2016,09,21,06,20,8.40
2016,09,21,06,21,8.40
2016,09,21,06,22,8.40
2016,09,21,06,23,8.40
2016,09,21,06,24,8.40
2016,09,21,06,25,8.30
2016,09,21,06,26,8.30
2016,09,21,06,27,8.30
2016,09,21,06,28,8.30
2016,09,21,06,29,8.30
2016,09,21,06,30,8.30
2016,09,21,06,31,8.30
2016,09,21,06,32,8.30
2016,09,21,06,33,8.30
2016,09,21,06,34,8.20
2016,09,21,06,35,8.20
2016,09,21,06,36,8.20
2016,09,21,06,37,8.20
2016,09,21,06,38,8.10
2016,09,21,06,39,8.10
2016,09,21,06,40,8.10
2016,09,21,06,41,8.00
2016,09,21,06,42,8.00
2016,09,21,06,43,8.00
2016,09,21,06,44,7.90
2016,09,21,06,45,7.90
2016,09,21,06,46,7.90
2016,09,21,06,47,7.90
2016,09,21,06,48,7.80
2016,09,21,06,49,7.80
2016,09,21,06,50,7.80
2016,09,21,06,51,7.80
2016,09,21,06,52,7.80
2016,09,21,06,53,7.70
2016,09,21,06,54,7.70
2016,09,21,06,55,7.70
2016,09,21,06,56,7.70
2016,09,21,06,57,7.70
2016,09,21,06,58,7.70
2016,09,21,06,59,7.70
2016,09,21,07,00,7.80
2016,09,21,07,01,7.80
2016,09,21,07,02,7.80
2016,09,21,07,03,7.80
2016,09,21,07,04,7.80
2016,09,21,07,05,7.80
2016,09,21,07,06,7.80
2016,09,21,07,07,7.70
2016,09,21,07,08,7.70
2016,09,21,07,09,7.70
2016,09,21,07,10,7.70
2016,09,21,07,11,7.70
2016,09,21,07,12,7.70
2016,09,21,07,13,7.70
2016,09,21,07,14,7.70
2016,09,21,07,15,7.70
2016,09,21,07,16,7.60
2016,09,21,07,17,7.60
2016,09,21,07,18,7.60
2016,09,21,07,19,7.60
2016,09,21,07,20,7.50
2016,09,21,07,21,7.50
2016,09,21,07,22,7.50
2016,09,21,07,23,7.50
2016,09,21,07,24,7.50
2016,09,21,07,25,7.60
2016,09,21,07,26,7.60
2016,09,21,07,27,7.60
2016,09,21,07,28,7.60
2016,09,21,07,29,7.60
2016,09,21,07,30,7.60
2016,09,21,07,31,7.60
2016,09,21,07,32,7.60
2016,09,21,07,33,7.70
2016,09,21,07,34,7.70
2016,09,21,07,35,7.70
2016,09,21,07,36,7.70
2016,09,21,07,37,7.70
2016,09,21,07,38,7.80
2016,09,21,07,39,7.80
2016,09,21,07,40,7.80
2016,09,21,07,41,7.90
2016,09,21,07,42,8.00
2016,09,21,07,43,8.10
2016,09,21,07,44,8.10
2016,09,21,07,45,8.10
2016,09,21,07,46,8.20
2016,09,21,07,47,8.20
2016,09,21,07,48,8.20
2016,09,21,07,49,8.30
2016,09,21,07,50,8.30
2016,09,21,07,51,8.30
2016,09,21,07,52,8.40
2016,09,21,07,53,8.50
2016,09,21,07,54,8.70
2016,09,21,07,55,8.90
2016,09,21,07,56,9.10
2016,09,21,07,57,9.30
2016,09,21,07,58,9.50
2016,09,21,07,59,9.60
2016,09,21,08,00,9.80
2016,09,21,08,01,9.90
2016,09,21,08,02,10.10
2016,09,21,08,03,10.30
2016,09,21,08,04,10.40
2016,09,21,08,05,10.50
2016,09,21,08,06,10.50
2016,09,21,08,07,10.60
2016,09,21,08,08,10.70
2016,09,21,08,09,10.80
2016,09,21,08,10,10.90
2016,09,21,08,11,11.00
2016,09,21,08,12,11.10
2016,09,21,08,13,11.10
2016,09,21,08,14,11.20
2016,09,21,08,15,11.20
2016,09,21,08,16,11.20
2016,09,21,08,17,11.20
2016,09,21,08,18,11.20
2016,09,21,08,19,11.20
2016,09,21,08,20,11.20
2016,09,21,08,21,11.10
2016,09,21,08,22,11.10
2016,09,21,08,23,11.10
2016,09,21,08,24,11.10
2016,09,21,08,25,11.10
2016,09,21,08,26,11.20
2016,09,21,08,27,11.20
2016,09,21,08,28,11.20
2016,09,21,08,29,11.20
2016,09,21,08,30,11.20
2016,09,21,08,31,11.20
2016,09,21,08,32,11.20
2016,09,21,08,33,11.20
2016,09,21,08,34,11.20
2016,09,21,08,35,11.20
2016,09,21,08,36,11.20
2016,09,21,08,37,11.20
2016,09,21,08,38,11.20
2016,09,21,08,39,11.20
2016,09,21,08,40,11.20
2016,09,21,08,41,11.20
2016,09,21,08,42,11.20
2016,09,21,08,43,11.20
2016,09,21,08,44,11.20
2016,09,21,08,45,11.20
2016,09,21,08,46,11.20
2016,09,21,08,47,11.20
2016,09,21,08,48,11.20
2016,09,21,08,49,11.20
2016,09,21,08,50,11.20
2016,09,21,08,51,11.20
2016,09,21,08,52,11.20
2016,09,21,08,53,11.20
2016,09,21,08,54,11.20
2016,09,21,08,55,11.20
2016,09,21,08,56,11.20
2016,09,21,08,57,11.20
2016,09,21,08,58,11.20
2016,09,21,08,59,11.20
2016,09,21,09,00,11.20
2016,09,21,09,01,11.20
2016,09,21,09,02,11.30
2016,09,21,09,03,11.20
2016,09,21,09,04,11.30
2016,09,21,09,05,11.30
2016,09,21,09,06,11.30
2016,09,21,09,07,11.30
2016,09,21,09,08,11.30
2016,09,21,09,09,11.30
2016,09,21,09,10,11.30
2016,09,21,09,11,11.30
2016,09,21,09,12,11.20
2016,09,21,09,13,11.20
2016,09,21,09,14,11.10
2016,09,21,09,15,11.00
2016,09,21,09,16,11.00
2016,09,21,09,17,10.90
2016,09,21,09,18,10.80
2016,09,21,09,19,10.80
2016,09,21,09,20,10.70
2016,09,21,09,21,10.70
2016,09,21,09,22,10.60
2016,09,21,09,23,10.60
2016,09,21,09,24,10.60
2016,09,21,09,25,10.60
2016,09,21,09,26,10.60
2016,09,21,09,27,10.60
2016,09,21,09,28,10.50
2016,09,21,09,29,10.50
2016,09,21,09,30,10.50
2016,09,21,09,31,10.50
2016,09,21,09,32,10.40
2016,09,21,09,33,10.40
2016,09,21,09,34,10.40
2016,09,21,09,35,10.40
2016,09,21,09,36,10.40
2016,09,21,09,37,10.40
2016,09,21,09,38,10.40
2016,09,21,09,39,10.40
2016,09,21,09,40,10.40
2016,09,21,09,41,10.40
2016,09,21,09,42,10.40
2016,09,21,09,43,10.40
2016,09,21,09,44,10.40
2016,09,21,09,45,10.40
2016,09,21,09,46,10.40
2016,09,21,09,47,10.40
2016,09,21,09,48,10.40
2016,09,21,09,49,10.40
2016,09,21,09,50,10.40
2016,09,21,09,51,10.40
2016,09,21,09,52,10.40
2016,09,21,09,53,10.40
2016,09,21,09,54,10.40
2016,09,21,09,55,10.40
2016,09,21,09,56,10.40
2016,09,21,09,57,10.40
2016,09,21,09,58,10.50
2016,09,21,09,59,10.50
2016,09,21,10,00,10.50
2016,09,21,10,01,10.60
2016,09,21,10,02,10.60
2016,09,21,10,03,10.70
2016,09,21,10,04,10.80
2016,09,21,10,05,10.80
2016,09,21,10,06,10.80
2016,09,21,10,07,10.90
2016,09,21,10,08,10.90
2016,09,21,10,09,11.00
2016,09,21,10,10,11.00
2016,09,21,10,11,11.10
2016,09,21,10,12,11.10
2016,09,21,10,13,11.10
2016,09,21,10,14,11.10
2016,09,21,10,15,11.10
2016,09,21,10,16,11.10
2016,09,21,10,17,11.10
2016,09,21,10,18,11.10
2016,09,21,10,19,11.10
2016,09,21,10,20,11.20
2016,09,21,10,21,11.20
2016,09,21,10,22,11.20
2016,09,21,10,23,11.20
2016,09,21,10,24,11.30
2016,09,21,10,25,11.30
2016,09,21,10,26,11.30
2016,09,21,10,27,11.30
2016,09,21,10,28,11.30
2016,09,21,10,29,11.40
2016,09,21,10,30,11.50
2016,09,21,10,31,11.60
2016,09,21,10,32,11.70
2016,09,21,10,33,11.80
2016,09,21,10,34,11.90
2016,09,21,10,35,12.00
2016,09,21,10,36,12.10
2016,09,21,10,37,12.20
2016,09,21,10,38,12.20
2016,09,21,10,39,12.30
2016,09,21,10,40,12.40
2016,09,21,10,41,12.60
2016,09,21,10,42,12.70
2016,09,21,10,43,12.80
2016,09,21,10,44,12.90
2016,09,21,10,45,13.00
2016,09,21,10,46,13.10
2016,09,21,10,47,13.10
2016,09,21,10,48,13.20
2016,09,21,10,49,13.30
2016,09,21,10,50,13.30
2016,09,21,10,51,13.30
2016,09,21,10,52,13.40
2016,09,21,10,53,13.50
2016,09,21,10,54,13.50
2016,09,21,10,55,13.60
2016,09,21,10,56,13.60
2016,09,21,10,57,13.70
2016,09,21,10,58,13.80
2016,09,21,10,59,13.80
2016,09,21,11,00,14.00
2016,09,21,11,01,14.20
2016,09,21,11,02,14.20
2016,09,21,11,03,14.30
2016,09,21,11,04,14.30
2016,09,21,11,05,14.40
2016,09,21,11,06,14.50
2016,09,21,11,07,14.60
2016,09,21,11,08,14.70
2016,09,21,11,09,14.80
2016,09,21,11,10,14.90
2016,09,21,11,11,15.00
2016,09,21,11,12,15.00
2016,09,21,11,13,15.10
2016,09,21,11,14,15.20
2016,09,21,11,15,15.30
2016,09,21,11,16,15.30
2016,09,21,11,17,15.40
2016,09,21,11,18,15.40
2016,09,21,11,19,15.50
2016,09,21,11,20,15.50
2016,09,21,11,21,15.50
2016,09,21,11,22,15.60
2016,09,21,11,23,15.70
2016,09,21,11,24,15.70
2016,09,21,11,25,15.70
2016,09,21,11,26,15.70
2016,09,21,11,27,15.80
2016,09,21,11,28,15.90
2016,09,21,11,29,15.90
2016,09,21,11,30,15.90
2016,09,21,11,31,16.00
2016,09,21,11,32,16.00
2016,09,21,11,33,16.10
2016,09,21,11,34,16.10
2016,09,21,11,35,16.10
2016,09,21,11,36,16.20
2016,09,21,11,37,16.20
2016,09,21,11,38,16.30
2016,09,21,11,39,16.30
2016,09,21,11,40,16.40
2016,09,21,11,41,16.40
2016,09,21,11,42,16.40
2016,09,21,11,43,16.50
2016,09,21,11,44,16.60
2016,09,21,11,45,16.60
2016,09,21,11,46,16.50
2016,09,21,11,47,16.60
2016,09,21,11,48,16.60
2016,09,21,11,49,16.60
2016,09,21,11,50,16.60
2016,09,21,11,51,16.70
2016,09,21,11,52,16.70
2016,09,21,11,53,16.60
2016,09,21,11,54,16.60
2016,09,21,11,55,16.60
2016,09,21,11,56,16.60
2016,09,21,11,57,16.60
2016,09,21,11,58,16.60
2016,09,21,11,59,16.60
2016,09,21,12,00,16.60
2016,09,21,12,01,16.70
2016,09,21,12,02,16.70
2016,09,21,12,03,16.70
2016,09,21,12,04,16.70
2016,09,21,12,05,16.80
2016,09,21,12,06,16.80
2016,09,21,12,07,16.90
2016,09,21,12,08,16.90
2016,09,21,12,09,17.00
2016,09,21,12,10,17.00
2016,09,21,12,11,17.10
2016,09,21,12,12,17.10
2016,09,21,12,13,17.20
2016,09,21,12,14,17.20
2016,09,21,12,15,17.20
2016,09,21,12,16,17.30
2016,09,21,12,17,17.30
2016,09,21,12,18,17.30
2016,09,21,12,19,17.30
2016,09,21,12,20,17.30
2016,09,21,12,21,17.30
2016,09,21,12,22,17.30
2016,09,21,12,23,17.40
2016,09,21,12,24,17.40
2016,09,21,12,25,17.50
2016,09,21,12,26,17.50
2016,09,21,12,27,17.60
2016,09,21,12,28,17.70
2016,09,21,12,29,17.80
2016,09,21,12,30,17.90
2016,09,21,12,31,18.00
2016,09,21,12,32,18.10
2016,09,21,12,33,18.20
2016,09,21,12,34,18.20
2016,09,21,12,35,18.20
2016,09,21,12,36,18.20
2016,09,21,12,37,18.20
2016,09,21,12,38,18.20
2016,09,21,12,39,18.10
2016,09,21,12,40,18.20
2016,09,21,12,41,18.20
2016,09,21,12,42,18.20
2016,09,21,12,43,18.20
2016,09,21,12,44,18.30
2016,09,21,12,45,18.30
2016,09,21,12,46,18.30
2016,09,21,12,47,18.30
2016,09,21,12,48,18.40
2016,09,21,12,49,18.40
2016,09,21,12,50,18.40
2016,09,21,12,51,18.50
2016,09,21,12,52,18.50
2016,09,21,12,53,18.50
2016,09,21,12,54,18.60
2016,09,21,12,55,18.60
2016,09,21,12,56,18.70
2016,09,21,12,57,18.70
2016,09,21,12,58,18.70
2016,09,21,12,59,18.70
2016,09,21,13,00,18.70
2016,09,21,13,01,18.70
2016,09,21,13,02,18.80
2016,09,21,13,03,18.80
2016,09,21,13,04,18.80
2016,09,21,13,05,18.90
2016,09,21,13,06,18.90
2016,09,21,13,07,19.00
2016,09,21,13,08,19.00
2016,09,21,13,09,19.10
2016,09,21,13,10,19.10
2016,09,21,13,11,19.20
2016,09,21,13,12,19.20
2016,09,21,13,13,19.30
2016,09,21,13,14,19.30
2016,09,21,13,15,19.40
2016,09,21,13,16,19.40
2016,09,21,13,17,19.50
2016,09,21,13,18,19.50
2016,09,21,13,19,19.60
2016,09,21,13,20,19.70
2016,09,21,13,21,19.80
2016,09,21,13,22,19.80
2016,09,21,13,23,20.00
2016,09,21,13,24,20.00
2016,09,21,13,25,20.10
2016,09,21,13,26,20.10
2016,09,21,13,27,20.20
2016,09,21,13,28,20.30
2016,09,21,13,29,20.30
2016,09,21,13,30,20.40
2016,09,21,13,31,20.40
2016,09,21,13,32,20.50
2016,09,21,13,33,20.50
2016,09,21,13,34,20.60
2016,09,21,13,35,20.60
2016,09,21,13,36,20.60
2016,09,21,13,37,20.50
2016,09,21,13,38,20.50
2016,09,21,13,39,20.40
2016,09,21,13,40,20.40
2016,09,21,13,41,20.40
2016,09,21,13,42,20.50
2016,09,21,13,43,20.50
2016,09,21,13,44,20.60
2016,09,21,13,45,20.60
2016,09,21,13,46,20.60
2016,09,21,13,47,20.60
2016,09,21,13,48,20.60
2016,09,21,13,49,20.60
2016,09,21,13,50,20.60
2016,09,21,13,51,20.70
2016,09,21,13,52,20.70
2016,09,21,13,53,20.80
2016,09,21,13,54,20.90
2016,09,21,13,55,20.90
2016,09,21,13,56,21.00
2016,09,21,13,57,21.00
2016,09,21,13,58,21.10
2016,09,21,13,59,21.10
2016,09,21,14,00,21.10
2016,09,21,14,01,21.10
2016,09,21,14,02,21.10
2016,09,21,14,03,21.10
2016,09,21,14,04,21.10
2016,09,21,14,05,21.00
2016,09,21,14,06,21.00
2016,09,21,14,07,21.00
2016,09,21,14,08,21.00
2016,09,21,14,09,21.00
2016,09,21,14,10,20.90
2016,09,21,14,11,20.90
2016,09,21,14,12,20.80
2016,09,21,14,13,20.80
2016,09,21,14,14,20.80
2016,09,21,14,15,20.80
2016,09,21,14,16,20.80
2016,09,21,14,17,20.80
2016,09,21,14,18,20.80
2016,09,21,14,19,20.80
2016,09,21,14,20,20.80
2016,09,21,14,21,20.80
2016,09,21,14,22,20.80
2016,09,21,14,23,20.80
2016,09,21,14,24,20.80
2016,09,21,14,25,20.80
2016,09,21,14,26,20.90
2016,09,21,14,27,20.90
2016,09,21,14,28,20.90
2016,09,21,14,29,21.00
2016,09,21,14,30,21.00
2016,09,21,14,31,21.10
2016,09,21,14,32,21.10
2016,09,21,14,33,21.10
2016,09,21,14,34,21.20
2016,09,21,14,35,21.20
2016,09,21,14,36,21.20
2016,09,21,14,37,21.20
2016,09,21,14,38,21.20
2016,09,21,14,39,21.10
2016,09,21,14,40,21.10
2016,09,21,14,41,21.10
2016,09,21,14,42,21.10
2016,09,21,14,43,21.20
2016,09,21,14,44,21.20
2016,09,21,14,45,21.20
2016,09,21,14,46,21.30
2016,09,21,14,47,21.30
2016,09,21,14,48,21.20
2016,09,21,14,49,21.20
2016,09,21,14,50,21.20
2016,09,21,14,51,21.20
2016,09,21,14,52,21.20
2016,09,21,14,53,21.20
2016,09,21,14,54,21.10
2016,09,21,14,55,21.10
2016,09,21,14,56,21.00
2016,09,21,14,57,21.00
2016,09,21,14,58,20.90
2016,09,21,14,59,20.90
2016,09,21,15,00,20.90
2016,09,21,15,01,20.90
2016,09,21,15,02,20.90
2016,09,21,15,03,20.90
2016,09,21,15,04,20.90
2016,09,21,15,05,20.90
2016,09,21,15,06,21.00
2016,09,21,15,07,21.00
2016,09,21,15,08,21.10
2016,09,21,15,09,21.10
2016,09,21,15,10,21.10
2016,09,21,15,11,21.10
2016,09,21,15,12,21.10
2016,09,21,15,13,21.20
2016,09,21,15,14,21.20
2016,09,21,15,15,21.30
2016,09,21,15,16,21.30
2016,09,21,15,17,21.40
2016,09,21,15,18,21.40
2016,09,21,15,19,21.40
2016,09,21,15,20,21.30
2016,09,21,15,21,21.30
2016,09,21,15,22,21.30
2016,09,21,15,23,21.30
2016,09,21,15,24,21.30
2016,09,21,15,25,21.30
2016,09,21,15,26,21.30
2016,09,21,15,27,21.30
2016,09,21,15,28,21.30
2016,09,21,15,29,21.30
2016,09,21,15,30,21.30
2016,09,21,15,31,21.30
2016,09,21,15,32,21.30
2016,09,21,15,33,21.30
2016,09,21,15,34,21.30
2016,09,21,15,35,21.30
2016,09,21,15,36,21.30
2016,09,21,15,37,21.30
2016,09,21,15,38,21.30
2016,09,21,15,39,21.30
2016,09,21,15,40,21.20
2016,09,21,15,41,21.20
2016,09,21,15,42,21.20
2016,09,21,15,43,21.10
2016,09,21,15,44,21.10
2016,09,21,15,45,21.10
2016,09,21,15,46,21.10
2016,09,21,15,47,21.10
2016,09,21,15,48,21.10
2016,09,21,15,49,21.10
2016,09,21,15,50,21.10
2016,09,21,15,51,21.10
2016,09,21,15,52,21.10
2016,09,21,15,53,21.10
2016,09,21,15,54,21.10
2016,09,21,15,55,21.00
2016,09,21,15,56,21.00
2016,09,21,15,57,20.90
2016,09,21,15,58,20.90
2016,09,21,15,59,20.80
2016,09,21,16,00,20.80
2016,09,21,16,01,20.70
2016,09,21,16,02,20.70
2016,09,21,16,03,20.70
2016,09,21,16,04,20.70
2016,09,21,16,05,20.60
2016,09,21,16,06,20.60
2016,09,21,16,07,20.60
2016,09,21,16,08,20.60
2016,09,21,16,09,20.50
2016,09,21,16,10,20.50
2016,09,21,16,11,20.50
2016,09,21,16,12,20.50
2016,09,21,16,13,20.50
2016,09,21,16,14,20.50
2016,09,21,16,15,20.40
2016,09,21,16,16,20.40
2016,09,21,16,17,20.40
2016,09,21,16,18,20.50
2016,09,21,16,19,20.50
2016,09,21,16,20,20.60
2016,09,21,16,21,20.60
2016,09,21,16,22,20.70
2016,09,21,16,23,20.70
2016,09,21,16,24,20.70
2016,09,21,16,25,20.70
2016,09,21,16,26,20.70
2016,09,21,16,27,20.70
2016,09,21,16,28,20.80
2016,09,21,16,29,20.80
2016,09,21,16,30,20.80
2016,09,21,16,31,20.80
2016,09,21,16,32,20.80
2016,09,21,16,33,20.80
2016,09,21,16,34,20.80
2016,09,21,16,35,20.80
2016,09,21,16,36,20.80
2016,09,21,16,37,20.80
2016,09,21,16,38,20.70
2016,09,21,16,39,20.70
2016,09,21,16,40,20.70
2016,09,21,16,41,20.70
2016,09,21,16,42,20.70
2016,09,21,16,43,20.60
2016,09,21,16,44,20.60
2016,09,21,16,45,20.60
2016,09,21,16,46,20.60
2016,09,21,16,47,20.50
2016,09,21,16,48,20.50
2016,09,21,16,49,20.50
2016,09,21,16,50,20.50
2016,09,21,16,51,20.60
2016,09,21,16,52,20.60
2016,09,21,16,53,20.60
2016,09,21,16,54,20.60
2016,09,21,16,55,20.60
2016,09,21,16,56,20.60
2016,09,21,16,57,20.70
2016,09,21,16,58,20.70
2016,09,21,16,59,20.70
2016,09,21,17,00,20.70
2016,09,21,17,01,20.70
2016,09,21,17,02,20.70
2016,09,21,17,03,20.70
2016,09,21,17,04,20.70
2016,09,21,17,05,20.70
2016,09,21,17,06,20.70
2016,09,21,17,07,20.70
2016,09,21,17,08,20.70
2016,09,21,17,09,20.70
2016,09,21,17,10,20.70
2016,09,21,17,11,20.70
2016,09,21,17,12,20.70
2016,09,21,17,13,20.70
2016,09,21,17,14,20.70
2016,09,21,17,15,20.70
2016,09,21,17,16,20.70
2016,09,21,17,17,20.70
2016,09,21,17,18,20.70
2016,09,21,17,19,20.60
2016,09,21,17,20,20.60
2016,09,21,17,21,20.60
2016,09,21,17,22,20.60
2016,09,21,17,23,20.60
2016,09,21,17,24,20.60
2016,09,21,17,25,20.50
2016,09,21,17,26,20.50
2016,09,21,17,27,20.50
2016,09,21,17,28,20.40